GW4745 Weather Reports


time (UTC)temp
C
wind
direction
speed
KPH
gust
KPH
rain 1hr
cm
rain 24hr
cm
rain mn
cm
humidity
%
barometer
mb
20260510234609 25 150 6.4 11.3 0.00 0.00 0.00 38 1015.3
20260510233114 25 150 8.0 16.1 0.00 0.00 0.00 36 1015.1
20260510231559 26 150 9.7 14.5 0.00 0.00 0.00 35 1014.9
20260510230101 26 150 9.7 22.5 0.00 0.00 0.00 33 1015.0
20260510224608 26 150 8.0 17.7 0.00 0.00 0.00 33 1015.0
20260510223106 26 150 9.7 16.1 0.00 0.00 0.00 32 1015.0
20260510221601 27 150 12.9 20.9 0.00 0.00 0.00 30 1014.9
20260510220106 27 150 8.0 17.7 0.00 0.00 0.00 31 1014.7
20260510214603 27 150 9.7 20.9 0.00 0.00 0.00 30 1014.7
20260510213102 27 150 4.8 16.1 0.00 0.00 0.00 30 1014.7
20260510211559 27 150 8.0 16.1 0.00 0.00 0.00 27 1014.7
20260510204604 27 150 4.8 14.5 0.00 0.00 0.00 26 1014.9
20260510203058 27 150 4.8 11.3 0.00 0.00 0.00 27 1014.9
20260510201610 27 150 3.2 17.7 0.00 0.00 0.00 27 1015.0
20260510200101 27 150 11.3 22.5 0.00 0.00 0.00 28 1015.2
20260510194607 27 150 3.2 17.7 0.00 0.00 0.00 28 1015.3
20260510193104 27 150 3.2 9.7 0.00 0.00 0.00 30 1015.5
20260510191605 26 150 3.2 17.7 0.00 0.00 0.00 29 1015.5
20260510190106 26 150 3.2 12.9 0.00 0.00 0.00 29 1015.7
20260510184607 26 150 4.8 14.5 0.00 0.00 0.00 31 1015.7
20260510183108 26 150 4.8 20.9 0.00 0.00 0.00 30 1015.7
20260510181610 26 150 9.7 14.5 0.00 0.00 0.00 31 1015.8
20260510180110 26 150 11.3 16.1 0.00 0.00 0.00 31 1016.0
20260510174558 26 150 3.2 12.9 0.00 0.00 0.00 31 1016.0
20260510173105 26 150 6.4 17.7 0.00 0.00 0.00 31 1016.3
20260510171607 25 150 6.4 19.3 0.00 0.00 0.00 32 1016.3
20260510170101 25 150 1.6 12.9 0.00 0.00 0.00 30 1016.4
20260510164606 25 150 4.8 16.1 0.00 0.00 0.00 31 1016.4
20260510163059 25 150 3.2 9.7 0.00 0.00 0.00 30 1016.5
20260510161606 24 150 3.2 8.0 0.00 0.00 0.00 31 1016.7
20260510160059 24 150 1.6 12.9 0.00 0.00 0.00 35 1016.9
20260510154605 23 150 6.4 12.9 0.00 0.00 0.00 35 1016.8
20260510153102 23 150 3.2 11.3 0.00 0.00 0.00 40 1016.8
20260510151558 22 150 6.4 11.3 0.00 0.00 0.00 42 1017.1
20260510150125 22 150 4.8 9.7 0.00 0.00 0.00 45 1016.9
20260510144557 22 150 1.6 6.4 0.00 0.00 0.00 49 1016.8
20260510143103 21 150 1.6 6.4 0.00 0.00 0.00 51 1016.7
20260510141600 21 0 0.0 9.7 0.00 0.00 0.00 51 1016.8
20260510134601 20 150 1.6 4.8 0.00 0.00 0.00 55 1017.0
20260510133058 20 150 3.2 6.4 0.00 0.00 0.00 58 1016.8
20260510131605 19 150 3.2 6.4 0.00 0.00 0.00 59 1016.8
20260510130059 18 150 0.0 3.2 0.00 0.00 0.00 64 1016.6
20260510124606 18 150 1.6 3.2 0.00 0.00 0.00 70 1016.6
20260510123102 17 150 0.0 3.2 0.00 0.00 0.00 74 1016.7
20260510121558 16 150 0.0 1.6 0.00 0.00 0.00 79 1016.4
20260510120058 15 0 0.0 1.6 0.00 0.00 0.00 83 1016.0
20260510114601 13 0 0.0 0.0 0.00 0.00 0.00 91 1015.9
20260510113057 12 0 0.0 0.0 0.00 0.00 0.00 91 1015.5
20260510111604 12 0 0.0 0.0 0.00 0.00 0.00 93 1015.2
20260510110057 11 0 0.0 0.0 0.00 0.00 0.00 94 1015.2
20260510104608 11 0 0.0 0.0 0.00 0.00 0.00 94 1014.6
20260510103104 11 0 0.0 0.0 0.00 0.00 0.00 93 1014.5
20260510101600 12 0 0.0 0.0 0.00 0.00 0.00 92 1014.1
20260510094613 12 0 0.0 0.0 0.00 0.00 0.00 92 1013.8
20260510093121 12 0 0.0 0.0 0.00 0.00 0.00 92 1013.8
20260510091557 12 0 0.0 0.0 0.00 0.00 0.00 93 1013.7
20260510090059 13 0 0.0 1.6 0.00 0.00 0.00 92 1013.6
20260510084616 12 0 0.0 0.0 0.00 0.00 0.00 96 1013.6
20260510083109 12 0 0.0 0.0 0.00 0.00 0.00 96 1013.4
20260510081558 13 0 0.0 0.0 0.00 0.00 0.00 96 1013.2
20260510074602 13 0 0.0 0.0 0.00 0.00 0.00 95 1012.9
20260510073100 13 0 0.0 0.0 0.00 0.00 0.00 95 1012.8
20260510071600 13 0 0.0 0.0 0.00 0.00 0.00 95 1012.7
20260510070059 14 0 0.0 0.0 0.00 0.00 0.00 95 1012.7
20260510064606 14 150 0.0 1.6 0.00 0.00 0.00 95 1012.7
20260510063101 14 150 0.0 1.6 0.00 0.00 0.00 95 1012.7
20260510061601 14 150 0.0 1.6 0.00 0.00 0.00 95 1012.9
20260510054600 15 0 0.0 0.0 0.00 0.00 0.00 93 1013.1
20260510053059 15 0 0.0 0.0 0.00 0.00 0.00 94 1012.9
20260510051605 15 150 0.0 0.0 0.00 0.00 0.00 93 1013.0
20260510050057 15 0 0.0 1.6 0.00 0.00 0.00 93 1013.3
20260510044617 15 0 0.0 1.6 0.00 0.00 0.00 92 1013.1
20260510043058 15 0 0.0 3.2 0.00 0.00 0.00 92 1013.1
20260510041558 15 150 3.2 9.7 0.00 0.00 0.00 92 1013.3
20260510040058 15 0 0.0 0.0 0.00 0.00 0.00 91 1013.1
20260510034600 16 0 0.0 0.0 0.00 0.00 0.00 90 1013.1
20260510033110 16 0 0.0 0.0 0.00 0.00 0.00 89 1013.2
20260510031557 16 0 0.0 0.0 0.00 0.00 0.00 88 1013.3
20260510030106 17 0 0.0 1.6 0.00 0.00 0.00 87 1013.2
20260510024600 17 150 0.0 1.6 0.00 0.00 0.00 85 1013.1
20260510023104 17 150 0.0 4.8 0.00 0.00 0.00 84 1013.0
20260510021613 18 0 0.0 4.8 0.00 0.00 0.00 83 1012.9
20260510020059 18 150 1.6 6.4 0.00 0.00 0.00 81 1012.7
20260510014605 18 150 0.0 4.8 0.00 0.00 0.00 80 1012.5
20260510013105 19 150 3.2 11.3 0.00 0.00 0.00 79 1012.2
20260510011559 19 150 4.8 11.3 0.00 0.00 0.00 78 1012.0
20260510010104 19 150 1.6 9.7 0.00 0.00 0.00 78 1011.8
20260510004601 20 150 1.6 6.4 0.00 0.00 0.00 77 1011.6
20260510003101 20 150 4.8 9.7 0.00 0.00 0.00 77 1011.2
20260510001600 20 150 3.2 11.3 0.00 0.00 0.00 75 1011.0
20260510000058 20 150 6.4 14.5 0.00 0.00 0.00 74 1010.8